Location: Newark
(41.8083°N, 72.2500°W)
Time: 06:39:11
(UTC+00:00)

X-37B - Visible Passes

Search period start: 23 September 2020 00:00
Search period end: 03 October 2020 00:00
Orbit: 386 x 387 km, 45.0° (Epoch: 18 September)

Date Brightness Start Highest point End Pass type
(mag) Time Alt. Az. Time Alt. Az. Time Alt. Az.
23 Sep 4.0 07:59:54 11° E 07:59:54 11° E 08:00:07 10° E visible
23 Sep 1.1 09:32:12 25° W 09:33:35 41° SSW 09:36:36 10° SE visible
24 Sep 2.6 08:36:46 25° ESE 08:36:46 25° ESE 08:38:14 10° ESE visible
24 Sep 2.7 10:09:36 10° WSW 10:11:16 13° SW 10:12:55 10° S visible
25 Sep 2.3 09:13:47 21° S 09:13:47 21° S 09:15:31 10° SSE visible
01 Oct 3.0 00:05:46 10° SSW 00:06:26 14° S 00:06:26 14° S visible
01 Oct 2.9 23:08:47 10° SSE 23:09:51 11° SE 23:10:54 10° ESE visible
02 Oct 3.5 00:42:51 10° WSW 00:43:20 14° SW 00:43:20 14° SW visible
02 Oct 1.3 23:44:34 10° SW 23:47:29 35° SSE 23:47:47 34° SE visible
